loading
DOY 173 | 2024-06-21T04:37:39Z

THOR ABLESTAR DEB, 544

Orbit data source: Space-Track

THOR ABLESTAR DEB, 544 is space debris in LEO originally from a launch on Thu, 29 Jun 1961 UTC launched from the Air Force Eastern Test Range (AFETR). Debris objects in space refer to the collection of defunct objects orbiting the Earth. Examples of debris include non-operational satellites, rocket bodies, and fragments generated from explosions, collisions, or faulty payload assembly.

Loading next visibility...
Loading greatness...
THOR ABLESTAR DEB details
NORAD ID544
COSPAR ID
1961-015GD
Orbit
LEO
Last TLE update1 day ago
Origin
Flag of USUSAF SSD (US)
ManufacturerUnknown
BusUnknown
MotorUnknown
MassWet unknown, Dry mass unknown
Launch date (UTC)
1961-06-29 (63 years ago)
Launch vehicleUnknown
Launch site
Air Force Eastern Test Range (AFETR)
Object type
Payload
Rocket body
Debris
Radar Cross SectionSmall (<0.1 m²)
Predictive object data (real-time)
Latitude56.108°
Longitude155.95252°
Altitude948.172 km
Speed7.439 km/s
Apparent Right ascension05h 44m 55s
Apparent Declination15° 12' 12"
Sunlit
Object is in daylight
Predictive observer data (real-time)
Local Sidereal Time15:36:40
Azimuth324.79° NNW
Elevation-27.321°
Doppler factor1
Orbital elements
Apogee1,186.205 km
Perigee914.686 km
Semi-major axis7,428.583 km
Eccentricity0.0182753
Inclination66.8744°
RAAN88.7879°
Arg. of periapsis30.2779°
True anomaly79.69355°
Mean anomaly77.6383°
Mean motion3.38988 °/min
BSTAR0.00038209
Period106.2 mins
Definitive object data (Epoch: 2024-06-20T04:03:24.121Z)
Latitude59.92136°
Longitude-108.11224°
Altitude1,034.699 km
Speed7.354 km/s
True Right ascension14h 46m 24s
True Declination59° 46' 39"
Sunlit
Object was in daylight at TLE epoch
TLE from 1 day ago
0 THOR ABLESTAR DEB
1   544U 61015GD  24172.16902918  .00000226  00000-0  38209-3 0  9993
2   544  66.8744  88.7879 0182753  30.2779  77.6383 13.55515740103577
Epoch: 2024-06-20T04:03Z
No data available

THOR ABLESTAR DEB Visibility forecast

Observer location: 39.9160978°, -105.1181434, 0m alt.

THOR ABLESTAR DEB is not visible in the next 10 days
Span
Click to sort rows by Start time (UTC) header in descending order
Start Az.
Max El. time (UTC)
Max El. Az.
Max El.
End time (UTC)
End Az.